#timestamp,LO_Frequency,Hit,StdDev 
1545505215.3,286047002.0,N
1545505235.2,286047000.9,N
1545505255.0,286046998.1,N
1545505255.9,286046998.1,N
1545505275.8,286046998.4,N
1545505295.6,286046996.8,N
1545505315.4,286046994.9,N
1545505335.3,286046997.2,N
1545505355.1,286046994.9,N
1545505375.8,286046995.7,N
1545505395.7,286046997.5,N
1545505415.5,286046997.2,N
1545505435.4,286046997.4,N
1545505455.2,286046997.2,N
1545505475.0,286046994.9,N
1545505475.9,286046994.9,N
1545505495.8,286046998.3,N
1545505515.6,286046994.9,N
1545505535.4,286046993.4,N
1545505555.3,286046996.4,N
1545505575.1,286046998.0,N
1545505595.9,286046997.6,N
1545505615.7,286046995.1,N
1545505635.5,286046993.7,N
1545505655.4,286046994.7,N
1545505675.2,286046991.4,Y
1545505695.1,286046992.5,P
1545505696.0,286046992.5,N
1545505715.8,286046992.9,N
1545505735.6,286046993.4,Y
1545505755.5,286047002.1,P
1545505775.3,286047002.5,N
1545505795.1,286046999.8,N
1545505815.9,286047001.8,N
1545505835.7,286047002.1,N
1545505855.6,286047001.5,N
1545505875.4,286047002.4,N
1545505895.2,286047001.7,N
1545505915.1,286047002.7,N
1545505916.0,286047002.7,N
1545505965.8,286047001.6,E
1545505975.8,286047002.3,N
1545505995.6,286047002.6,P
1545506015.4,286046999.9,N
1545506035.3,286047002.3,N
1545506055.1,286047004.3,Y
1545506075.9,286047001.0,P
1545506095.7,286047001.2,P
1545506115.5,286047000.8,N
1545506135.4,286046999.9,N
1545506155.2,286046999.9,N
1545506175.0,286047002.0,N
1545506175.9,286047002.0,N
1545506195.8,286047006.7,Y
1545506215.6,286047004.7,P
1545506235.5,286047005.1,N
1545506255.3,286047005.2,N
1545506275.1,286047002.1,N
1545506325.9,286047000.1,E
1545506335.8,286047000.3,N
1545506355.7,286047000.7,P
1545506375.5,286047002.7,P
1545506395.3,286046998.6,N
1545506415.2,286047001.2,N
1545506435.0,286047000.5,N
1545506435.9,286047000.5,N
1545506455.8,286047002.0,N
1545506475.6,286047000.2,N
1545506495.4,286047000.7,N
1545506515.3,286047000.0,N
1545506535.1,286047002.6,N
1545506555.9,286047000.0,N
1545506575.7,286047000.0,N
1545506595.5,286046999.0,N
1545506615.4,286046998.8,N
1545506635.2,286046999.3,N
1545506655.0,286047001.4,N
1545506655.9,286047001.4,N
1545506675.8,286047002.5,N
1545506695.6,286047000.5,N
1545506715.5,286047000.2,N
1545506735.3,286047002.4,N
1545506755.1,286047001.8,N
1545506775.9,286047002.4,N
1545506795.7,286047003.8,Y
1545506815.6,286046999.9,P
1545506835.4,286046998.3,P
1545506855.2,286047000.7,N
1545506875.1,286047004.4,Y
1545506876.0,286047004.4,P
1545506895.8,286047004.4,N
1545506915.6,286047002.7,N
1545506935.5,286046999.7,N
1545506955.3,286047003.8,N
1545506975.2,286046999.8,N
1545506995.9,286046998.7,N
1545507015.7,286046996.6,N
1545507035.6,286047000.2,N
1545507055.4,286046998.6,N
1545507075.2,286046998.1,N
1545507095.1,286047002.8,N
1545507096.0,286047002.8,N
1545507115.8,286047000.7,N
1545507135.7,286046998.6,N
1545507155.5,286047001.0,N
1545507175.3,286047000.2,N
1545507195.2,286047000.0,N
1545507215.0,286047002.1,N
1545507215.9,286047002.1,N
1545507235.8,286047002.7,N
1545507255.6,286047002.1,N
1545507275.4,286047002.0,N
1545507295.3,286047000.3,N
1545507315.1,286047002.2,N
1545507335.8,286047002.6,N
1545507355.7,286047002.7,N
1545507375.5,286047001.9,N
1545507395.4,286047004.3,N
1545507415.2,286047002.5,N
1545507435.0,286047001.2,N
1545507435.9,286047001.2,N
1545507455.8,286047002.7,N
1545507475.6,286046999.8,N
1545507495.5,286047001.8,N
1545507515.3,286046999.7,N
1545507535.1,286047002.1,N
1545507555.9,286047002.6,N
1545507575.7,286047001.8,N
1545507595.5,286047000.5,N
1545507615.4,286046999.7,N
1545507635.2,286046998.1,N
1545507655.1,286047000.4,N
1545507656.0,286047000.4,N
1545507675.8,286046999.0,N
1545507695.6,286047000.8,N
1545507715.5,286046998.7,N
1545507735.3,286046999.4,N
1545507755.1,286046998.6,N
1545507775.9,286046998.8,N
1545507795.7,286047002.8,N
1545507815.6,286047002.6,N
1545507835.4,286047001.0,N
1545507855.2,286046996.9,N
1545507875.1,286046998.2,N
1545507876.0,286046998.2,N
1545507895.8,286047001.3,N
1545507915.7,286047001.5,N
1545507935.5,286047005.5,Y
1545507955.3,286047003.1,P
1545507975.2,286047001.6,N
1545507995.0,286047002.8,N
1545507995.9,286047002.8,N
1545508015.7,286047001.6,N
1545508035.6,286047002.2,N
1545508055.4,286047004.1,Y
1545508075.3,286047000.8,P
1545508095.1,286046998.8,N
1545508115.8,286046996.5,N
1545508135.7,286046996.9,N
1545508155.5,286046996.6,N
1545508175.4,286046998.9,N
1545508195.2,286046999.5,N
1545508215.0,286046997.2,N
1545508215.9,286046997.2,N
1545508235.8,286046995.4,N
1545508255.6,286046995.2,N
1545508275.4,286046995.8,N
1545508295.3,286046999.4,N
1545508315.1,286046998.9,N
1545508335.9,286046998.8,N
1545508355.7,286046998.4,N
1545508375.5,286046996.5,N
1545508395.4,286046995.5,N
1545508415.2,286046996.3,N
1545508435.0,286046995.7,N
1545508436.0,286046995.7,N
1545508455.8,286046995.3,N
1545508475.6,286046996.2,N
1545508495.5,286046996.9,N
1545508515.3,286046993.7,Y
1545508535.1,286046997.3,P
1545508555.9,286046997.0,P
1545508575.7,286046999.1,P
1545508595.6,286047000.4,N
1545508615.4,286047002.3,N
1545508635.2,286047000.8,N
1545508655.1,286047011.9,Y
1545508656.0,286047001.4,P
1545508675.8,286047002.1,N
1545508695.7,286047002.0,N
1545508715.5,286047002.4,N
1545508735.3,286047002.8,N
1545508755.2,286047000.0,N
1545508775.0,286047002.7,N
1545508775.9,286047002.7,N
1545508795.7,286047000.8,N
